Regional Weather Roundup
Issued by NWS Newport/Morehead, NC

Current Version | Previous Version | Graphics & Text | Print | Product List | Glossary Off
Versions: 1 2 3 4 5 6 7 8 9 10 11 12 13 14 15 16 17 18 19 20 21 22 23 24 25 26 27 28 29 30 31 32 33 34 35 36 37 38 39 40 41 42 43 44 45 46 47 48 49 50
000 ASUS42 KMHX 291525 RWRMHX WEATHER ROUNDUP FOR EASTERN NORTH CAROLINA NATIONAL WEATHER SERVICE NEWPORT/MOREHEAD CITY NC 1100 AM EDT SAT APR 29 2017 NOTE: "FAIR" INDICATES FEW OR NO CLOUDS BELOW 12,000 FEET WITH NO SIGNIFICANT WEATHER AND/OR OBSTRUCTIONS TO VISIBILITY NCZ015>017-031-032-045>047-102-103-291600- NORTH COAST CITY SKY/WX TMP DP RH WIND PRES REMARKS EDENTON SUNNY 82 71 69 SW9 30.20F ELIZABETH CITY LGT RAIN 81 74 79 SW16 30.18F KITTY HAWK SUNNY 81 69 67 CALM 30.19S MANTEO MOSUNNY 79 70 72 W15 30.21S $$ NCZ045>047-081-094-103-104-291600- CENTRAL COAST CITY SKY/WX TMP DP RH WIND PRES REMARKS FRISCO MOSUNNY 78 71 79 SW10 30.24S HAZE $$ NCZ095-097-098-100-101-291600- SOUTHERN COAST CITY SKY/WX TMP DP RH WIND PRES REMARKS BEAUFORT PTSUNNY 79 75 87 SW16 30.24S CEDAR ISLAND NOT AVBL JACKSONVILLE MOSUNNY 83 72 69 W14 30.22S PINEY ISLAND MOSUNNY N/A N/A N/A SW18G25 30.23R WILMINGTON MOSUNNY 83 70 64 SW13G22 30.23S $$ NCZ011>013-027>030-043-044-078>080-089-090>093-098-291600- COASTAL PLAIN CITY SKY/WX TMP DP RH WIND PRES REMARKS AHOSKIE N/A 81 72 73 S5 30.19S CLINTON MOSUNNY 81 72 74 SW7 30.22F ELIZABETHTOWN PTSUNNY 82 70 66 S13 30.23S GOLDSBORO MOSUNNY 82 74 77 S13 30.20S GREENVILLE MOSUNNY 81 70 69 SW9 30.23S HAVELOCK PTSUNNY 81 71 71 SW13 30.23F KENANSVILLE MOSUNNY 82 70 65 S7 30.23S KINSTON PTSUNNY 82 70 65 SW8 30.22F NEW BERN MOSUNNY 83 71 67 SW12G20 30.23S RICHLANDS MOSUNNY 83 71 67 SW13G20 30.23F ROCKY MOUNT MOSUNNY 81 71 71 SW10 30.21S WASHINGTON MOSUNNY 82 70 68 SW13 30.21F WHITEVILLE MOSUNNY 82 70 66 S9 30.23S $$ AMZ130-135-150-152-154-156-158-170-250-252-270-ANZ085-086-088-633-658-670-291600- MARINE OBSERVATIONS STATION/POSITION TIME TEMP WIND PRES WAVE SWELL AIR SEA DIR/SP/G HT/PER HT/PER (UTC) (F) (DEG/KT/KT) (MB) (FT/S) (FT/S) CHESAPEAKE LIGHT NOT AVBL 64 E VA BEACH 1450 62 57 220/ 12/ 12 1022.2 3/ 8 3/ 8 DUCK 1500 77 56 240/ 15/ 17 1021.7 2 E DUCK 1500 59 N/A 2/ 8 OREGON INLET 1500 76 75 220/ 12/ 13 1022.7 13E OREGON INLT 1448 63 N/A 4/ 5 2/ 7 HATTERAS CG 1454 76 72 210/ 9/ 13 1023.8 DIAMOND BUOY 1450 77 76 230/ 14/ 17 1024.0 4/ 6 2/ 8 CAPE LOOKOUT 1500 76 220/ 8/ 11 1023.8 BEAUFORT LAB 1500 77 70 220/ 7/ 11 1023.3 30 SE NEW RVR IN 1508 73 220/ 10/ 12 1024.2 30 SE NEW RVR IN 1513 73 N/A 4/ 6 27 SE WRIGHTSVLE 1508 74 73 190/ 8/ 10 1023.7 5 SE WRIGHTSVLE 1508 73 71 190/ 8/ 14 1023.8 225 S CAPE HAT 1450 75 76 150/ 10/ 12 1026.0 3/ 7 3/ 7 41 SE CHARLESTON 1510 76 75 180/ 8/ 10 1024.0 $$

USA.gov is the U.S. government's official web portal to all federal, state and local government web resources and services.